Tracking 31027 objects as of 19-Jul-2025
HD Live streaming from Space Station
objects crossing your sky now

STARLINK-32540

Track STARLINK-32540 now!
10-day predictions
STARLINK-32540 is classified as:


NORAD ID: 61723
Int'l Code: 2024-196S
Perigee: 481.5 km
Apogee: 483.3 km
Inclination: 53.2 °
Period: 94.1 minutes
Semi major axis: 6853 km
RCS: Unknown
Launch date: October 30, 2024
Source: United States (US)
Launch site: AIR FORCE EASTERN TEST RANGE (AFETR)
Your satellite tracking list
STARLINK-3349
Track 1 satellite(s)




NASA's NSSDC Master Catalog

Two Line Element Set (TLE):
1 61723U 24196S   25199.67004925 -.00000650  00000-0 -98212-5 0  9990
2 61723  53.1608  72.5333 0001283  90.9834 269.1314 15.30192854 41700
Source of the keplerian elements: AFSPC